Location: Unspecified
(0.0000°N, 0.0000°E)
Time: 23:13:53
(UTC+00:00)

Vanguard 1 - Pass Details

Date: 04 October 2020
Orbit: 649 x 3833 km, 34.3° (Epoch: 28 October)

Event Time Altitude Azimuth Distance (km) Brightness Sun altitude
Rises 14:55:51 0° 230° (SW) 7,960 15.3 43.0°
Reaches altitude 10° 15:01:24 10° 228° (SW) 6,933 15.2 41.6°
Maximum altitude 15:24:28 78° 143° (SE) 3,096 13.1 35.9°
Drops below altitude 10° 15:38:27 10° 59° (ENE) 4,540 13.1 32.4°
Sets 15:41:14 0° 58° (ENE) 5,211 13.3 31.7°
